AirNav   Everest Fuels
 
 298 users online  

67S Priest Lake USFS Airport
Nordman, Idaho, USA

GOING TO NORDMAN?


FAA INFORMATION EFFECTIVE 25 FEBRUARY 2021

Location

FAA Identifier: 67S
Lat/Long: 48-34-26.4000N 116-57-30.9000W
48-34.440000N 116-57.515000W
48.5740000,-116.9585833
(estimated)
Elevation: 2611 ft. / 796 m (estimated)
Variation: 20E (1985)
From city: 3 miles S of NORDMAN, ID
Time zone: UTC -8 (UTC -7 during Daylight Saving Time)
Zip code: 83856

Airport Operations

Airport use: Open to the public
Activation date: 08/1949
Control tower: no
ARTCC: SEATTLE CENTER
FSS: BOISE FLIGHT SERVICE STATION
NOTAMs facility: BOI (NOTAM-D service available)
Attendance: UNATNDD
Wind indicator: yes
Segmented circle: no

Airport Communications

CTAF: 122.9

Nearby radio navigation aids

NDB name  Hdg/Dist  Freq  Var  ID
IONE093/19.837921EION .. --- -.
SANDPOE303/23.226414ESZT ... --.. -

Airport Services

Parking: tiedowns
Airframe service: NONE
Powerplant service: NONE

Runway Information

Runway 14/32

Dimensions: 4400 x 175 ft. / 1341 x 53 m
MAY NOT BE MOWED TO FULL WIDTH.
Surface: turf/gravel, in fair condition
Runway edge markings: RWY 14/32 IS MKD ONLY WITH W CEMENT BDRY MKRS; THLDS MKD WITH CONC STRIPS.
RUNWAY 14  RUNWAY 32
Latitude: 48-34.783938N48-34.096802N
Longitude: 116-57.686078W116-57.343335W
Elevation: 2611.0 ft.2586.0 ft.
Traffic pattern: leftleft
Runway heading: 142 magnetic, 162 true322 magnetic, 342 true
Obstructions: 15 ft. road, 480 ft. from runway, 32:1 slope to clear
+60' TREES AT 300' TO 1000' ON CNTRLN.
15 ft. road, 275 ft. from runway, 100 ft. left of centerline, 18:1 slope to clear
+14 FT ROAD 300 FT ON CNTRLN; 60 FT TREES 500 FT TO 1000 FT ON CNTRLN.

Airport Ownership and Management from official FAA records

Ownership: Publicly-owned
Owner: U.S. FOREST SERVICE
P.O.BOX 7669
MISSOULA, MT 59807
Phone 406-329-3511
Manager: GLEN PALFREY - USFS AFMO OFFICER
32203 HWY 57
PRIEST RIVER, ID 83856
Phone 208-443-6824

Airport Operational Statistics

Aircraft operations: avg 23/week *
100% transient general aviation
* for 12-month period ending 15 September 2015

Additional Remarks

NO WINTER MAINTENANCE.
DO NOT PARK ACFT WITHIN 100 FT OF WX STATION.
USFS HELIPAD PRIVATE USE - LOCATED ON AIRPORT.
FOR CD CTC SEATTLE ARTCC AT 253-351-3694.

Instrument Procedures

There are no published instrument procedures at 67S.

Some nearby airports with instrument procedures:

KSZT - Sandpoint Airport (23 nm SE)
65S - Boundary County Airport (28 nm E)
KDEW - Deer Park Airport (41 nm SW)
KCOE - Coeur d'Alene Airport - Pappy Boyington Field (48 nm S)
KSFF - Felts Field Airport (55 nm S)
 
Loc | Ops | Rwys | IFR | FBO | Links
Com | Nav | Svcs | Stats | Notes
Area around 67S (Priest Lake USFS Airport)
 
Road maps at: MapQuest Bing Google
 
Aerial photo
WARNING: Photo may not be current or correct
Aerial photo of 67S (Priest Lake USFS Airport)
Photo by Tim Riley.
Taken in May 2009

Do you have a better or more recent aerial photo of Priest Lake USFS Airport that you would like to share? If so, please send us your photo.

 
Sectional chart

 
Airport distance calculator
Flying to Priest Lake USFS Airport? Find the distance to fly.

From to 67S

Sunrise and sunset
Times for 06-Mar-2021
 Local
(UTC-8)
 Zulu
(UTC)
Morning civil twilight05:4913:49
Sunrise06:2014:20
Sunset17:3801:38
Evening civil twilight18:0902:09

Current date and time
Zulu (UTC)  06-Mar-2021 08:37:19
Local (UTC-8)  06-Mar-2021 00:37:19
 
METAR
KSZT 
23nm SE 
060755Z AUTO 00000KT 10SM CLR 00/M02 A2979 RMK AO2
K65S 
28nm E 
060755Z AUTO 00000KT 10SM BKN110 01/M04 A2977 RMK AO2
CWJR 
35nm NE 
060700Z AUTO 28001KT 06/M03 RMK AO1 SLP106 T00571027 58015
K63S 
36nm W 
060755Z AUTO 00000KT 10SM SCT028 SCT050 OVC110 M00/M03 A2981 RMK A01
KDEW 
41nm SW 
060753Z AUTO 00000KT 10SM CLR M01/M04 A2980 RMK AO2 SLP100 T10111044 401501028
TAF
KCOE 
49nm S 
060540Z 0606/0706 20004KT P6SM SCT060 BKN200 FM061200 16004KT P6SM VCSH OVC028 FM061500 23007KT 5SM -RA SCT008 OVC018 TEMPO 0617/0619 5SM -RA OVC008 FM062000 22008KT P6SM BKN035 OVC090 FM062100 23013KT P6SM BKN040 BKN090
CYCG 
50nm NW 
051838Z 0519/0601 VRB03KT P6SM FEW080 SCT140 BKN240 FM052200 20008KT P6SM FEW060 BKN120 RMK NXT FCST WILL BE ISSUED AT 061545Z
NOTAMs
Click for the latest NOTAMs
NOTAMs are issued by the DoD/FAA and will open in a separate window not controlled by AirNav.

 

 
 

Would you like to see your business listed on this page?

 If your business provides an interesting product or service to pilots, flight crews, aircraft, or users of the Priest Lake USFS Airport, you should consider listing it here.  To start the listing process, click on the button below
 
Add a business
 

Other Pages about Priest Lake USFS Airport

Update a link
 
Copyright © AirNav, LLC. All rights reserved. Privacy Policy  Contact